Вернуться в каталог

STARLINK-37922

АктивенСвязьVLEO
NORAD 69971·PAYLOAD·🇺🇸 United States

Запущен Jul 9, 2026 с Cape Canaveral Space Force Station

Loading…

Ближайшие Пролёты (ближайшие 24 часа)

TLE

СвежийSource: CelesTrak SupGP

Эпоха: Sep 15, 2026, 03:03 UTC

1 69971C 26157AE  26258.12756944  .00073551  00000+0  21731-2 0  2588
2 69971  53.1593 358.5241 0001267  90.8323 220.4308 15.34353948    14

Отслеживайте STARLINK-37922 в реальном времени с AllMySat

Download on the App Store